Wind_Speed
9 10 12 10 7 6 15 13 10 5 4 2 3 2 2 4 4 4 8 7 5 8 11 13 14 14 14 13 11 10 9 8 7 8 8 8 6 4 1 1 3 3 4 8 9 10 9 7 6
9 8 8 6 9 14 16 11 8 6 7 5 2 1 4 6 5 5 11 10 5 9 12 13 13 15 15 13 12 10 8 7 7 7 8 7 5 2 2 4 5 4 6 8 10 9 7 6 4
8 8 7 5 6 11 13 8 4 3 3 4 6 4 5 10 10 12 12 11 6 9 14 14 13 14 15 14 13 11 9 7 7 8 8 7 4 3 5 6 5 4 7 9 9 8 6 4 3
10 7 5 2 5 9 15 11 8 6 4 5 5 4 9 10 11 8 11 11 6 11 15 15 14 14 15 15 13 11 9 7 7 7 8 6 5 5 7 5 3 6 8 10 9 8 6 5 6
12 9 6 6 7 10 14 18 7 12 15 8 9 7 11 11 11 10 12 7 4 10 13 14 14 15 15 14 13 11 9 7 6 6 6 6 5 7 8 4 6 8 9 9 8 7 7 8 10
15 9 8 10 6 7 15 18 12 9 12 9 7 9 11 14 14 11 10 5 5 9 11 12 12 13 13 13 12 10 9 7 6 6 6 7 7 8 5 5 8 9 9 9 8 9 9 11 13
18 13 14 13 11 3 13 17 12 2 14 11 3 9 11 16 14 14 12 4 4 10 11 11 11 11 11 11 11 10 9 7 7 7 6 7 8 6 5 7 8 9 9 10 10 10 12 14 15
18 16 17 16 11 5 12 13 14 5 6 5 9 7 9 15 12 14 13 3 6 10 11 10 10 10 10 10 11 10 9 8 7 7 7 8 6 6 6 7 8 9 9 9 10 12 14 14 16
17 19 19 18 12 8 13 12 12 9 10 13 9 8 11 10 12 12 13 4 5 8 9 9 11 12 12 11 10 10 9 9 9 8 8 6 6 7 7 7 8 8 8 9 11 13 14 16 18
15 20 20 17 12 15 11 11 10 10 7 10 10 6 7 7 12 10 11 7 1 8 8 8 10 11 11 11 11 10 10 9 9 9 8 8 8 7 7 7 7 8 8 9 12 14 16 18 20
9 14 12 15 14 15 15 10 9 13 8 8 3 6 4 8 13 12 8 9 9 4 4 4 9 11 11 11 11 10 9 9 9 9 9 9 8 8 8 8 8 9 9 11 13 15 18 19 20
6 6 9 11 11 12 13 13 12 12 11 9 8 8 6 7 9 12 7 7 10 9 8 4 6 9 9 11 9 10 10 10 10 11 10 9 9 9 9 9 9 9 9 11 14 17 18 19 21
6 9 10 9 7 9 15 16 18 17 15 11 10 10 7 8 6 5 3 3 8 10 10 8 7 7 8 8 11 12 12 11 12 12 11 10 9 9 8 9 10 11 13 15 17 19 20 20 23
10 12 11 8 9 14 14 15 17 22 21 14 9 9 5 10 8 5 5 2 4 7 9 10 9 7 8 9 10 11 13 13 12 12 11 10 10 10 11 13 15 17 19 20 20 21 22 22 25
10 12 9 3 8 9 12 5 13 13 10 13 9 7 6 11 12 6 5 2 5 5 8 7 8 9 8 8 11 11 12 11 11 11 12 11 12 13 16 18 19 20 24 25 21 23 25 25 26
12 7 6 9 9 14 13 13 16 10 8 10 10 9 10 14 10 11 12 5 5 9 5 6 5 7 9 8 8 9 12 11 12 13 14 14 16 18 20 22 22 20 22 19 24 25 26 29 28
4 7 11 9 11 15 16 17 14 11 7 6 8 11 13 12 15 13 16 16 8 11 11 10 11 10 10 12 13 13 15 16 17 19 20 20 21 22 25 28 37 28 24 18 23 27 25 30 31
10 12 14 14 15 17 17 19 16 12 9 11 12 10 10 10 11 14 17 20 20 14 14 17 16 15 14 16 17 18 19 19 20 22 23 23 25 26 30 33 36 34 24 15 19 25 27 29 33
11 11 12 16 12 17 20 23 22 17 13 13 14 19 19 19 18 13 13 18 19 26 21 19 19 17 17 18 19 20 21 21 24 27 27 28 30 32 34 35 39 44 21 21 23 25 29 30 33
7 8 12 14 16 17 18 17 13 9 16 19 21 25 26 27 23 19 21 19 17 16 24 26 21 18 15 16 18 23 25 26 28 30 32 34 35 34 37 35 42 48 22 21 22 28 30 32 34
7 9 8 11 17 17 16 5 18 20 9 11 16 23 23 23 26 26 23 21 17 16 14 20 24 20 18 19 22 25 25 26 28 32 34 34 34 37 36 44 38 34 20 16 25 30 31 32 35
6 9 9 11 15 10 15 5 18 21 21 12 10 5 11 4 10 9 6 15 13 13 12 14 18 22 21 21 23 24 27 29 32 35 34 35 36 33 43 45 33 35 22 15 25 29 28 33 36
5 9 10 13 9 2 14 4 17 17 25 24 21 21 14 10 5 4 1 4 6 9 9 11 15 17 18 23 26 27 30 34 36 38 35 37 36 41 35 39 27 29 22 20 24 25 29 33 36
9 11 12 6 5 2 13 9 12 18 20 20 21 17 15 14 10 7 6 5 4 7 9 10 12 11 17 23 27 30 34 39 40 41 40 36 37 37 30 27 23 26 25 26 25 28 32 35 38
6 9 6 5 5 5 15 4 8 19 19 19 16 16 11 12 9 7 8 6 6 3 3 5 7 11 16 23 28 31 35 40 39 37 37 36 35 32 26 20 24 27 30 28 27 30 33 37 40
3 7 3 2 2 7 9 1 1 11 16 13 15 18 14 10 10 5 5 1 4 4 8 9 11 16 17 22 26 30 35 35 34 35 39 35 28 24 21 22 25 29 30 28 29 32 36 39 40
5 10 6 3 4 3 6 8 14 5 13 13 10 14 16 15 8 6 7 3 5 9 8 14 16 14 18 22 24 24 29 32 32 34 31 23 22 22 23 25 30 29 28 28 31 33 37 38 40
9 11 7 6 1 3 5 10 11 15 13 13 14 11 10 10 9 9 9 12 16 17 15 17 19 22 25 25 24 25 28 32 33 34 24 22 22 25 26 28 31 28 29 30 33 36 36 37 40
11 10 5 4 2 4 1 1 6 14 16 13 14 12 10 12 13 14 16 18 19 19 18 18 21 26 28 29 22 12 25 28 30 29 21 24 23 25 27 29 30 27 29 31 33 35 36 41 43
5 2 6 4 4 4 4 11 9 15 20 20 18 17 15 16 17 17 19 21 23 22 22 22 25 30 33 40 44 52 30 46 43 26 26 22 25 25 30 27 25 26 29 32 35 34 39 42 41
Wind_Direction
326 353 355 18 26 19 18 9 21 6 20 18 86 126 283 287 282 310 320 331 278 198 195 184 180 172 177 182 183 184 178 176 174 172 171 171 168 157 133 280 273 246 196 159 152 144 137 132 126
314 339 350 22 26 16 23 17 19 323 283 293 250 215 268 290 307 317 332 331 294 200 187 181 182 173 177 184 187 190 188 183 181 182 186 184 180 191 280 298 276 214 175 160 150 148 148 154 163
294 320 335 348 21 13 21 14 340 9 357 314 266 308 269 307 298 296 323 320 293 211 185 178 185 180 179 184 190 195 192 191 188 192 197 196 205 258 298 299 270 186 167 161 162 165 172 185 228
280 297 313 303 340 34 16 344 240 259 276 293 310 305 304 300 316 329 326 315 276 210 181 177 184 186 185 186 192 198 198 199 200 200 207 216 231 283 305 290 224 178 177 175 180 188 202 225 260
266 282 287 274 310 45 37 28 289 255 266 253 261 273 294 300 321 337 338 324 244 204 182 181 188 188 189 190 195 201 207 208 211 214 221 229 254 292 295 230 197 187 187 190 199 216 234 255 274
254 261 270 265 290 65 30 15 351 261 244 264 233 260 303 325 323 336 342 326 215 177 183 185 194 196 196 196 199 205 212 219 219 223 229 240 268 287 259 207 193 194 198 208 224 241 257 275 289
242 250 256 262 283 96 17 16 28 222 237 271 307 285 303 334 337 351 345 330 165 173 174 186 199 204 208 203 205 213 218 221 228 229 241 258 276 263 224 204 200 207 214 228 241 258 272 287 296
231 239 247 253 269 325 352 5 4 267 304 235 262 299 312 330 345 353 348 336 123 154 167 183 196 206 215 216 215 220 224 231 234 235 248 264 254 219 209 204 208 219 228 245 261 274 286 299 300
222 230 237 244 268 298 327 342 352 344 239 279 262 306 318 338 359 356 353 343 191 181 175 180 194 200 208 214 219 224 231 237 238 247 251 235 208 207 203 206 217 225 238 258 273 283 289 291 293
214 230 239 248 277 300 306 318 340 337 326 282 243 315 299 8 25 12 353 31 95 209 196 193 198 203 207 213 218 222 230 237 244 242 227 200 200 203 210 217 223 240 257 271 280 286 289 292 295
222 242 251 253 275 293 297 296 324 330 329 343 291 284 318 41 21 25 5 46 65 80 170 203 208 206 209 213 220 223 230 237 239 219 205 197 204 211 220 228 239 254 266 277 283 284 285 292 300
256 237 250 255 263 291 285 298 308 304 316 324 271 231 277 358 4 27 12 53 67 81 92 120 175 198 209 214 215 213 214 214 209 205 201 205 212 221 233 240 251 261 271 280 282 285 292 298 302
266 247 247 258 279 292 291 292 300 281 292 296 247 228 285 312 345 9 25 100 93 88 93 106 129 147 160 181 188 189 192 196 200 207 211 211 216 226 242 249 259 268 276 279 287 293 297 300 304
264 256 247 252 284 311 320 314 289 276 281 274 245 243 318 297 297 333 10 294 132 114 114 110 119 142 160 175 182 191 194 197 204 209 214 221 234 247 256 264 269 274 276 281 289 297 296 297 299
285 290 263 2 14 2 356 308 308 322 283 275 258 265 316 288 265 311 293 354 221 157 155 143 152 163 159 176 189 194 195 200 207 219 235 242 253 264 269 272 272 278 285 289 291 296 298 295 298
293 318 4 344 11 9 4 348 7 313 308 279 260 262 271 291 255 276 286 269 247 227 205 209 211 198 198 201 209 210 213 217 226 235 245 255 261 266 271 270 264 276 279 282 290 296 298 296 299
49 6 9 21 17 7 351 341 344 353 286 274 320 292 285 286 259 269 272 275 266 250 238 240 233 228 222 229 236 235 232 237 240 245 250 258 266 273 278 280 279 327 262 265 271 290 294 295 295
355 356 5 2 358 352 340 328 324 338 340 299 296 288 276 269 264 269 266 279 274 258 244 234 243 239 237 239 244 252 259 265 266 263 266 270 275 279 282 289 294 285 303 284 269 289 290 295 296
336 338 339 7 354 346 343 324 323 313 311 299 285 281 277 273 274 258 243 261 273 268 255 257 246 247 253 260 270 269 273 277 282 282 279 275 273 274 279 288 293 295 342 305 280 287 291 292 294
338 341 353 0 356 348 339 331 14 339 285 280 275 277 277 276 269 261 245 254 254 248 264 257 264 259 260 263 274 277 281 281 279 277 277 278 280 284 285 294 300 303 308 296 281 285 286 290 297
349 339 337 338 342 338 340 59 12 18 325 292 280 275 281 281 275 272 253 240 250 265 268 269 267 269 274 273 272 279 292 290 292 285 284 286 286 285 291 287 282 288 296 292 289 286 286 295 300
32 345 335 331 333 350 18 308 6 11 26 27 12 302 284 267 338 344 276 223 259 275 285 281 275 272 283 294 297 295 299 299 293 291 285 282 281 286 287 282 288 284 306 269 277 280 293 298 301
346 336 319 322 337 352 20 1 9 16 20 22 34 41 31 13 332 309 283 211 241 237 235 241 281 276 284 290 298 298 301 297 290 292 291 289 281 285 275 281 279 288 289 285 279 288 295 298 305
313 333 319 326 19 9 2 9 23 24 16 16 16 21 43 47 50 28 18 357 358 237 264 268 280 282 288 291 294 298 299 292 292 296 296 288 281 286 292 283 293 296 283 293 293 296 299 307 307
315 332 340 7 8 241 334 352 49 41 26 8 7 8 7 12 19 18 8 359 353 330 272 274 282 282 290 288 291 294 294 289 290 293 290 288 285 297 296 291 279 288 289 295 293 297 304 307 309
345 5 26 287 269 290 326 310 291 3 21 11 15 16 334 328 324 306 315 252 336 291 303 287 276 277 285 293 295 290 286 285 288 296 295 289 289 294 281 274 280 282 291 289 296 304 307 310 312
47 19 11 297 310 318 323 354 350 312 335 351 4 358 360 360 319 320 264 285 275 307 305 288 288 302 300 303 305 299 295 291 292 306 300 288 286 286 288 287 289 288 288 296 302 303 306 309 310
14 355 345 344 324 299 304 329 6 345 1 14 17 7 0 348 338 312 306 293 280 277 282 285 286 303 300 297 303 307 299 297 303 309 297 286 285 291 293 294 293 290 291 293 297 303 307 309 310
338 341 326 292 273 173 296 195 37 9 354 343 340 342 330 319 318 310 310 311 314 311 300 278 288 287 290 288 284 309 350 337 319 309 296 285 286 289 289 287 284 281 287 294 299 308 312 313 312
341 43 17 16 318 300 251 265 250 319 321 317 322 325 323 321 316 315 313 313 311 310 306 297 287 294 295 298 300 309 355 326 300 295 293 286 286 289 285 294 285 293 299 308 313 316 318 315 313
Height
3192 3191 3190 3189 3192 3189 3187 3187 3186 3187 3186 3185 3183 3182 3182 3180 3179 3181 3177 3175 3174 3174 3175 3176 3177 3179 3182 3184 3186 3188 3189 3191 3192 3193 3194 3194 3195 3195 3196 3196 3196 3196 3196 3197 3198 3198 3199 3200 3200
3192 3191 3191 3190 3191 3187 3188 3187 3187 3186 3186 3184 3184 3183 3181 3181 3179 3177 3175 3174 3173 3174 3175 3176 3178 3179 3181 3184 3186 3188 3189 3191 3192 3193 3194 3194 3195 3195 3195 3196 3196 3195 3196 3197 3198 3199 3199 3199 3199
3192 3191 3191 3190 3189 3189 3188 3187 3187 3186 3185 3184 3183 3183 3181 3181 3179 3177 3175 3173 3171 3172 3173 3175 3178 3179 3181 3184 3186 3188 3189 3191 3192 3193 3194 3194 3195 3195 3195 3195 3195 3195 3196 3198 3198 3199 3199 3199 3199
3190 3191 3192 3190 3190 3191 3190 3188 3186 3185 3184 3183 3183 3182 3180 3179 3177 3175 3173 3171 3170 3171 3172 3174 3176 3179 3181 3184 3186 3188 3190 3191 3192 3193 3194 3195 3195 3196 3195 3194 3195 3195 3197 3197 3198 3199 3199 3198 3198
3189 3190 3190 3188 3190 3191 3190 3188 3187 3185 3184 3184 3184 3182 3179 3178 3176 3174 3171 3170 3170 3170 3172 3174 3176 3178 3181 3183 3186 3188 3190 3191 3192 3193 3193 3194 3195 3195 3194 3193 3194 3195 3196 3197 3198 3198 3198 3197 3196
3188 3189 3189 3187 3188 3189 3188 3187 3185 3183 3183 3184 3183 3181 3179 3178 3175 3172 3169 3168 3168 3169 3171 3173 3176 3179 3181 3183 3186 3188 3189 3190 3191 3192 3193 3193 3193 3193 3193 3193 3194 3195 3196 3197 3197 3197 3196 3195 3194
3185 3187 3187 3185 3186 3188 3188 3186 3184 3184 3184 3184 3182 3180 3180 3177 3175 3173 3170 3167 3167 3168 3171 3173 3176 3179 3181 3183 3185 3187 3188 3189 3190 3191 3192 3192 3192 3192 3192 3192 3193 3194 3195 3196 3195 3195 3194 3193 3192
3183 3185 3185 3184 3186 3187 3187 3186 3186 3184 3183 3183 3182 3180 3180 3178 3175 3172 3169 3167 3167 3168 3170 3173 3175 3178 3181 3182 3184 3185 3187 3188 3189 3190 3190 3190 3191 3191 3191 3191 3192 3193 3194 3194 3193 3193 3192 3191 3189
3181 3183 3183 3183 3184 3185 3185 3184 3184 3183 3182 3182 3181 3179 3179 3177 3176 3174 3170 3167 3167 3169 3170 3172 3174 3176 3179 3180 3182 3184 3186 3187 3187 3188 3189 3189 3189 3189 3190 3190 3191 3192 3192 3192 3192 3191 3189 3188 3186
3178 3179 3181 3183 3183 3182 3182 3183 3183 3182 3180 3179 3179 3179 3178 3178 3177 3174 3171 3168 3167 3168 3170 3172 3174 3175 3177 3179 3181 3182 3184 3185 3186 3187 3187 3188 3188 3188 3189 3190 3190 3190 3190 3190 3189 3188 3186 3184 3182
3177 3178 3180 3181 3182 3181 3180 3180 3180 3181 3180 3178 3178 3179 3179 3178 3177 3174 3172 3170 3168 3169 3169 3170 3172 3173 3175 3177 3179 3181 3182 3183 3185 3185 3186 3186 3187 3188 3188 3188 3188 3188 3187 3187 3186 3184 3183 3181 3179
3176 3177 3178 3179 3180 3180 3179 3179 3178 3178 3179 3178 3177 3178 3178 3178 3177 3175 3173 3172 3170 3169 3169 3170 3171 3172 3174 3176 3178 3179 3181 3182 3183 3185 3185 3186 3186 3186 3186 3186 3185 3185 3184 3183 3182 3180 3179 3176 3174
3175 3176 3176 3177 3179 3179 3177 3176 3175 3174 3175 3175 3176 3177 3177 3177 3176 3175 3175 3173 3173 3172 3171 3171 3172 3173 3174 3175 3177 3179 3180 3181 3182 3184 3184 3184 3184 3184 3184 3184 3183 3182 3181 3179 3177 3175 3173 3171 3169
3174 3175 3176 3177 3178 3176 3175 3173 3172 3172 3170 3171 3173 3175 3175 3176 3176 3174 3174 3174 3173 3173 3172 3173 3174 3174 3175 3176 3177 3178 3179 3180 3181 3182 3183 3182 3182 3182 3181 3181 3180 3179 3177 3175 3173 3171 3169 3166 3163
3174 3174 3175 3177 3175 3173 3170 3171 3168 3166 3165 3167 3169 3171 3172 3173 3174 3173 3173 3174 3174 3173 3172 3173 3173 3174 3175 3176 3176 3177 3178 3179 3180 3180 3180 3180 3180 3179 3178 3178 3177 3176 3176 3175 3171 3167 3165 3162 3158
3174 3174 3174 3174 3173 3170 3169 3167 3166 3165 3164 3165 3166 3167 3170 3170 3170 3171 3171 3172 3173 3172 3173 3173 3173 3173 3173 3175 3176 3176 3177 3177 3178 3178 3178 3178 3177 3176 3174 3172 3166 3166 3167 3167 3166 3164 3160 3157 3153
3173 3173 3173 3172 3171 3170 3169 3167 3166 3164 3164 3164 3164 3165 3166 3168 3168 3168 3168 3169 3171 3172 3172 3172 3172 3173 3173 3174 3175 3175 3176 3175 3176 3176 3175 3175 3174 3173 3170 3164 3150 3148 3154 3153 3155 3158 3154 3151 3147
3173 3173 3172 3171 3171 3169 3168 3166 3165 3165 3163 3162 3163 3163 3163 3164 3165 3166 3165 3165 3169 3170 3170 3171 3171 3172 3173 3173 3173 3174 3173 3173 3173 3173 3172 3172 3170 3168 3163 3159 3153 3151 3138 3142 3146 3148 3146 3144 3141
3172 3172 3172 3171 3170 3168 3166 3164 3164 3162 3161 3160 3160 3160 3160 3161 3161 3162 3163 3163 3164 3165 3166 3167 3169 3170 3171 3171 3172 3171 3171 3171 3170 3170 3169 3167 3165 3162 3158 3153 3147 3142 3131 3140 3138 3140 3141 3137 3134
3172 3172 3171 3170 3169 3168 3165 3163 3162 3158 3157 3156 3156 3156 3155 3154 3154 3155 3156 3159 3160 3160 3161 3162 3165 3166 3168 3169 3168 3167 3167 3167 3166 3165 3163 3161 3159 3156 3152 3149 3142 3136 3127 3133 3134 3135 3133 3131 3127
3172 3171 3170 3170 3168 3167 3164 3161 3160 3157 3153 3152 3151 3150 3150 3148 3148 3148 3150 3153 3156 3156 3156 3157 3160 3163 3164 3165 3164 3163 3162 3161 3161 3159 3157 3154 3153 3150 3145 3139 3134 3132 3133 3127 3128 3130 3128 3124 3120
3172 3171 3169 3168 3167 3165 3164 3162 3159 3156 3153 3150 3149 3147 3146 3146 3145 3144 3145 3148 3152 3153 3152 3154 3156 3160 3160 3161 3158 3157 3155 3154 3153 3150 3147 3146 3146 3142 3138 3127 3120 3125 3124 3121 3124 3124 3121 3117 3112
3173 3171 3169 3167 3164 3164 3162 3162 3160 3157 3153 3151 3149 3147 3146 3145 3145 3146 3146 3147 3147 3148 3150 3151 3152 3155 3156 3155 3153 3151 3148 3147 3145 3142 3139 3137 3137 3134 3130 3124 3101 3117 3118 3118 3118 3115 3112 3108 3104
3172 3170 3168 3166 3164 3164 3162 3162 3161 3158 3156 3154 3152 3150 3149 3147 3147 3147 3147 3146 3145 3146 3147 3148 3150 3151 3151 3149 3147 3144 3141 3139 3135 3131 3127 3126 3123 3123 3123 3119 3116 3114 3113 3112 3109 3107 3104 3100 3096
3171 3170 3168 3169 3168 3167 3162 3162 3162 3160 3159 3157 3155 3152 3151 3150 3149 3149 3148 3147 3146 3146 3146 3147 3148 3148 3146 3143 3141 3138 3135 3131 3128 3123 3120 3120 3117 3115 3114 3112 3110 3109 3105 3104 3102 3100 3096 3093 3089
3170 3170 3171 3173 3173 3165 3161 3162 3162 3161 3160 3157 3156 3154 3152 3151 3150 3148 3149 3146 3147 3147 3147 3146 3145 3143 3140 3139 3137 3133 3129 3126 3123 3119 3114 3110 3109 3108 3107 3106 3105 3103 3100 3098 3097 3093 3090 3085 3080
3170 3171 3171 3170 3168 3166 3163 3162 3161 3159 3157 3156 3155 3154 3152 3151 3149 3149 3148 3146 3147 3146 3145 3144 3142 3139 3136 3134 3129 3126 3123 3119 3117 3112 3106 3106 3105 3103 3103 3101 3098 3097 3095 3092 3090 3086 3082 3079 3075
3171 3172 3171 3169 3170 3168 3163 3162 3161 3157 3155 3154 3153 3152 3151 3150 3149 3148 3147 3146 3144 3142 3140 3140 3138 3135 3129 3124 3122 3121 3118 3112 3111 3107 3103 3103 3102 3099 3097 3094 3092 3091 3089 3085 3083 3081 3078 3074 3066
3170 3169 3169 3169 3168 3168 3169 3162 3160 3157 3155 3153 3152 3151 3150 3148 3147 3146 3145 3143 3141 3139 3137 3135 3132 3126 3121 3115 3111 3108 3107 3105 3102 3101 3099 3098 3098 3096 3094 3092 3088 3085 3084 3082 3079 3075 3071 3064 3057
3168 3167 3167 3167 3168 3167 3166 3161 3157 3154 3153 3151 3150 3149 3148 3146 3144 3143 3142 3140 3137 3135 3133 3129 3124 3121 3118 3114 3109 3092 3094 3100 3101 3094 3093 3092 3091 3091 3086 3082 3082 3081 3079 3076 3072 3068 3062 3056 3049